LITTLE LAKE NEAR BAY DOSGRIS NEA LA US USGS current weather conditions

sailwx.info

Wind from 144 at 8 knots

Last reported at 2019-Dec-15 22:00 UTC.
Time now 2019-Dec-15 23:31 UTC

Location: N 29°28' W 090°06'.
View on Google Maps.

See reports from other nearby stations

  
Tides and Currents Weather Stations Pressure Air Temp Water Temp Dewpoint Dewpoint Depression Visibility Wind Speed Wind Dir Waves Ship Positions
date/time (UTC)wind fromknots sea level pressurealtimeterstation pressurevisibilityair tempwater tempwave heightnotes
2019-Dec-15 22:00 144 8
2019-Dec-15 21:00 166 13
2019-Dec-15 20:00 167 13
2019-Dec-15 19:00 160 11
2019-Dec-15 18:00 157 13
2019-Dec-15 17:00 144 12
2019-Dec-15 16:00 149 10
2019-Dec-15 15:00 139 7
2019-Dec-15 14:00 126 7
2019-Dec-15 13:00 115 5
2019-Dec-15 12:00 106 5
2019-Dec-15 11:00 090 6
2019-Dec-15 10:00 087 6
2019-Dec-15 09:00 077 6
2019-Dec-15 08:00 076 4
2019-Dec-15 07:00 076 4
2019-Dec-15 06:00 080 5
2019-Dec-15 05:00 092 7
2019-Dec-15 04:00 095 10
2019-Dec-15 03:00 126 8
2019-Dec-15 02:00 099 8
2019-Dec-15 01:00 094 9
2019-Dec-15 00:00 097 10
2019-Dec-14 23:00 122 7
2019-Dec-14 22:00 114 6
2019-Dec-14 20:00 085 5
2019-Dec-14 19:00 098 6
2019-Dec-14 18:00 084 3
2019-Dec-14 17:00 072 2
2019-Dec-14 16:00 108 3
2019-Dec-14 15:00 112 4
2019-Dec-14 14:00 110 4
2019-Dec-14 13:00 127 4
2019-Dec-14 12:00 055 1
2019-Dec-14 11:00 324 2
2019-Dec-14 10:00 092 4
2019-Dec-14 08:00 069 6
2019-Dec-14 07:00 241 1
2019-Dec-14 06:00 348 4
2019-Dec-14 05:00 333 3
2019-Dec-14 04:00 314 3
2019-Dec-14 03:00 316 3
2019-Dec-14 02:00 350 4
2019-Dec-14 01:00 035 4
2019-Dec-14 00:00 349 6
2019-Dec-13 23:00 339 8